Location: Veytaux
(46.4185°N, 6.9320°E)
Time: 22:28:12
(UTC+00:00)

FENGYUN 3A - Pass Details

Date: 27 May 2022
Orbit: 823 x 836 km, 98.5° (Epoch: 04 July)

Event Time Altitude Azimuth Distance (km) Brightness Sun altitude
Rises 02:51:34 0° 15° (NNE) 3,372 7.9 -8.4°
Reaches altitude 10° 02:53:56 10° 18° (NNE) 2,435 7.2 -8.1°
Maximum altitude 02:59:19 72° 103° (ESE) 871 3.9 -7.4°
Drops below altitude 10° 03:04:41 10° 187° (S) 2,423 5.7 -6.7°
Sets 03:07:02 0° 190° (S) 3,353 6.3 -6.4°
